Ohio State University Airport
KOSU : now visible

Airfield :











YOU CAN JOIN US ON...

 
LOGIN :

Register | Disclaimer

   EN    FR    IT 

 









Legend :    VFR   Marginal VFR   IFR   Intensive IFR   Very Intensive IFR
Visi :
Ceiling :
>= 8 km
>= 3000ft
5 to 8 km
1000 to 3000 ft
1500m to 5 km
500 to 1000 ft
800 to 1500m
200 to 500 ft
< 800m
< 200 ft
Symbols :   Thunderstorms  Fog  Heavy snow  Heavy precipitations  Wind > 20 kt






- Airport Elevation : 905 ft


KOSU - Ohio State University

CURRENT METAR :
  • 271453Z 28005KT 10SM OVC031 08/04 A3013 RMK AO2 SLP204 T00830039 52007

EXPIRED METARs :
  • 271353Z 29004KT 10SM OVC030 08/03 A3012 RMK AO2 SLP203 T00780033
  • 271322Z 30003KT 10SM OVC030 08/03 A3012 RMK AO2 T00780033
  • 271253Z 29005KT 10SM OVC029 08/03 A3011 RMK AO2 SLP199 T00780033

TAF N/A
KZID FIR / North America



MET'MAP, your aeronautical weather chart ! - Copyright ORBIFLY December 2007 - Disclaimer

ORBIFLY MET'MAP TEAM :

Programming & Development : Alexandra Zaïnal
Concept & original design : Baudouin d'Aumeries
Assistance for programming : Marc-Olivier Méhu
Technical & hardware support : Manuel Goepfert

Contact : metmap@orbifly.com




SOURCES & CREDITS :

   NOAA       Earth
Advisory